Weather History for KATY - January, 2013

Change the Weather History Date:

Monday, January 28, 2013

  Actual Average Record
Temperature  
Mean Temperature 30 °F 13 °F  
Max Temperature 32 °F 23 °F 49 °F (1931)
Min Temperature 27 °F 3 °F -29 °F (1915)
Degree Days  
Heating Degree Days 35 52  
Month to date heating degree days 1432 1470  
Since 1 July heating degree days 4789 4929  
Cooling Degree Days 0 0  
Month to date cooling degree days 0 0  
Year to date cooling degree days 0 0  
Moisture  
Dew Point 29 °F    
Average Humidity 93    
Maximum Humidity 100    
Minimum Humidity 85    
Precipitation  
Precipitation 0.03 in 0.02 in 0.29 in (1975)
Month to date precipitation 0.15 0.47  
Year to date precipitation 0.15 0.47  
Snow  
Snow 0.00 in - - ()
Month to date snowfall 0.3  
Since 1 July snowfall 11.0  
Snow Depth 5.00 in    
Sea Level Pressure  
Sea Level Pressure 29.76 in    
Wind  
Wind Speed 8 mph (West)    
Max Wind Speed 15 mph    
Max Gust Speed 17 mph    
Visibility 3 miles    
Events Fog , Rain , Snow    
T = Trace of Precipitation, MM = Missing Value Source: NWS Daily Summary

Daily Weather History Graph

Daily Weather History Graph

Search for Another Location

Airport or City:

Trip Planner

Search our weather history database for the weather conditions in past years. The results will help you decide how hot, cold, wet, or windy it might be!

Date:

Astronomy

Jan. 28, 2013 Rise Set
Actual Time 7:52 AM CST 5:31 PM CST
Civil Twilight 7:20 AM CST 6:03 PM CST
Nautical Twilight 6:45 AM CST 6:38 PM CST
Astronomical Twilight 6:10 AM CST 7:12 PM CST
Moon 7:35 PM CST (1/28) 8:12 AM CST (1/28)
Length of Visible Light 10h 42m
Length of Day
9h 39m
Full, 98% of the Moon is Illuminated
Jan 28
Full
Feb 3
Last Quarter
Feb 10
New
Feb 17
First Quarter
Feb 25
Full

Hourly Weather History & Observations

Time (CST) Temp. Windchill Dew Point Humidity Pressure Visibility Wind Dir Wind Speed Gust Speed Precip Events Conditions
12:33 AM 32.0 °F 25.6 °F 32.0 °F 100% 29.74 in 1.5 mi WSW 6.9 mph - N/A   Overcast
12:53 AM 32.0 °F 26.4 °F 32.0 °F 100% 29.80 in 1.8 mi SW 5.8 mph - N/A   Overcast
1:20 AM 32.0 °F 24.8 °F 32.0 °F 100% 29.74 in 2.0 mi SW 8.1 mph - N/A   Overcast
1:53 AM 32.0 °F 24.8 °F 32.0 °F 100% 29.79 in 3.0 mi SW 8.1 mph - N/A   Overcast
2:01 AM 32.0 °F 24.8 °F 32.0 °F 100% 29.74 in 2.5 mi SW 8.1 mph - N/A   Overcast
2:42 AM 32.0 °F 24.8 °F 32.0 °F 100% 29.74 in 1.8 mi SW 8.1 mph - N/A   Overcast
2:53 AM 30.9 °F 22.2 °F 30.9 °F 100% 29.80 in 1.8 mi SW 10.4 mph - N/A   Overcast
3:15 AM 30.2 °F 21.9 °F 30.2 °F 100% 29.74 in 1.2 mi SW 9.2 mph - N/A   Overcast
3:24 AM 30.2 °F 21.3 °F 30.2 °F 100% 29.75 in 1.5 mi SW 10.4 mph - N/A   Overcast
3:50 AM 30.2 °F 21.9 °F 30.2 °F 100% 29.75 in 1.2 mi WSW 9.2 mph - N/A   Overcast
3:53 AM 30.9 °F 22.8 °F 30.9 °F 100% 29.81 in 1.0 mi WSW 9.2 mph - N/A   Overcast
4:43 AM 30.2 °F 21.9 °F 30.2 °F 100% 29.76 in 1.8 mi SW 9.2 mph - N/A   Overcast
4:53 AM 30.9 °F 23.5 °F 30.9 °F 100% 29.81 in 1.2 mi SW 8.1 mph - N/A   Overcast
5:27 AM 30.2 °F 20.2 °F 30.2 °F 100% 29.77 in 2.0 mi West 12.7 mph - N/A   Overcast
5:53 AM 30.9 °F 21.7 °F 30.9 °F 100% 29.82 in 2.0 mi West 11.5 mph - N/A   Overcast
6:19 AM 30.2 °F 20.8 °F 30.2 °F 100% 29.76 in 4.0 mi SW 11.5 mph - N/A   Overcast
6:53 AM 30.0 °F 20.5 °F 30.0 °F 100% 29.83 in 2.0 mi WSW 11.5 mph - N/A   Overcast
7:08 AM 28.4 °F 20.4 °F 28.4 °F 100% 29.77 in 1.2 mi WSW 8.1 mph - N/A   Overcast
7:17 AM 28.4 °F 21.2 °F 28.4 °F 100% 29.77 in 0.5 mi WSW 6.9 mph - N/A Fog Light Freezing Fog
7:53 AM 28.9 °F 19.8 °F 28.9 °F 100% 29.84 in 0.5 mi SSW 10.4 mph - N/A Fog Light Freezing Fog
8:11 AM 28.4 °F 20.4 °F 28.4 °F 100% 29.77 in 1.0 mi SSW 8.1 mph - N/A   Overcast
8:18 AM 28.4 °F 21.2 °F 28.4 °F 100% 29.78 in 0.8 mi SSW 6.9 mph - N/A   Overcast
8:36 AM 28.4 °F 21.2 °F 28.4 °F 100% 29.78 in 1.0 mi SW 6.9 mph - N/A   Overcast
8:43 AM 28.4 °F 22.2 °F 28.4 °F 100% 29.77 in 0.5 mi South 5.8 mph - N/A Fog Light Freezing Fog
8:53 AM 28.0 °F 19.3 °F 28.0 °F 100% 29.83 in 0.5 mi SSW 9.2 mph - N/A Fog Light Freezing Fog
9:25 AM 28.4 °F 19.7 °F 26.6 °F 93% 29.79 in 0.2 mi WSW 9.2 mph - N/A Fog Light Freezing Fog
9:53 AM 27.0 °F 18.7 °F 27.0 °F 100% 29.84 in 0.2 mi WSW 8.1 mph - N/A Fog Light Freezing Fog
10:22 AM 28.4 °F 19.1 °F 26.6 °F 93% 29.79 in 2.0 mi SW 10.4 mph - N/A   Overcast
10:50 AM 28.4 °F 18.5 °F 26.6 °F 93% 29.80 in 4.0 mi SW 11.5 mph - N/A   Overcast
10:53 AM 28.0 °F 18.6 °F 27.0 °F 96% 29.87 in 4.0 mi WSW 10.4 mph - N/A   Overcast
11:17 AM 28.4 °F 21.2 °F 26.6 °F 93% 29.80 in 5.0 mi WSW 6.9 mph - N/A   Mostly Cloudy
11:26 AM 28.4 °F 20.4 °F 26.6 °F 93% 29.80 in 5.0 mi WSW 8.1 mph - N/A   Scattered Clouds
11:53 AM 28.9 °F 22.8 °F 27.0 °F 92% 29.84 in 6.0 mi WSW 5.8 mph - N/A   Mostly Cloudy
12:53 PM 28.9 °F 23.9 °F 27.0 °F 92% 29.81 in 5.0 mi NW 4.6 mph - N/A   Mostly Cloudy
1:53 PM 28.9 °F - 27.0 °F 92% 29.78 in 6.0 mi Calm Calm - N/A   Mostly Cloudy
2:53 PM 30.0 °F 25.2 °F 27.0 °F 88% 29.79 in 6.0 mi West 4.6 mph - N/A   Overcast
3:53 PM 30.9 °F - 28.0 °F 89% 29.79 in 6.0 mi Calm Calm - 0.00 in   Overcast
4:53 PM 30.0 °F 23.2 °F 28.0 °F 92% 29.76 in 7.0 mi NE 6.9 mph - 0.00 in   Overcast
5:53 PM 30.0 °F 22.4 °F 28.0 °F 92% 29.75 in 8.0 mi NNE 8.1 mph - 0.01 in   Overcast
6:53 PM 30.0 °F 22.4 °F 28.0 °F 92% 29.74 in 8.0 mi North 8.1 mph - 0.00 in   Overcast
7:19 PM 30.2 °F 22.6 °F 28.4 °F 93% 29.69 in 7.0 mi NNE 8.1 mph - N/A   Overcast
7:30 PM 30.2 °F 21.3 °F 28.4 °F 93% 29.69 in 7.0 mi NNE 10.4 mph - N/A   Overcast
7:53 PM 30.0 °F 21.7 °F 28.0 °F 92% 29.75 in 8.0 mi NE 9.2 mph - N/A   Overcast
8:22 PM 30.2 °F 20.8 °F 28.4 °F 93% 29.68 in 8.0 mi NE 11.5 mph - N/A   Overcast
8:33 PM 28.4 °F 19.1 °F 28.4 °F 100% 29.67 in 7.0 mi NNE 10.4 mph - N/A   Overcast
8:42 PM 28.4 °F 17.5 °F 28.4 °F 100% 29.66 in 5.0 mi NNE 13.8 mph - N/A   Overcast
8:53 PM 28.9 °F 19.8 °F 28.0 °F 96% 29.73 in 5.0 mi NNE 10.4 mph - N/A   Overcast
9:34 PM 28.4 °F 20.4 °F 28.4 °F 100% 29.66 in 3.0 mi NNE 8.1 mph - N/A   Overcast
9:39 PM 28.4 °F 19.1 °F 28.4 °F 100% 29.66 in 2.5 mi NE 10.4 mph - 0.00 in Rain Light Freezing Rain
9:53 PM 28.9 °F 21.1 °F 28.0 °F 96% 29.73 in 2.0 mi NNE 8.1 mph - 0.00 in Rain Light Freezing Rain
10:53 PM 28.0 °F 17.5 °F 28.0 °F 100% 29.70 in 2.5 mi NNE 12.7 mph - 0.01 in Rain Light Freezing Rain
11:09 PM 28.4 °F 19.1 °F 26.6 °F 93% 29.62 in 2.5 mi NNE 10.4 mph - 0.00 in Snow Light Snow
11:16 PM 28.4 °F 18.5 °F 26.6 °F 93% 29.63 in 3.0 mi North 11.5 mph - 0.00 in   Overcast
11:31 PM 28.4 °F 19.7 °F 26.6 °F 93% 29.63 in 3.0 mi North 9.2 mph - 0.01 in Snow Light Snow
11:53 PM 28.0 °F 18.1 °F 27.0 °F 96% 29.68 in 2.0 mi North 11.5 mph - 0.01 in   Overcast